Bogota, Colombia

1:13 PM -05 en Septiembre 21, 2018 (GMT -0500)
Eldorado International

Tiempo Historia de SKBO - Julio, 2018

Change the Weather History Date:

Jueves, Julio 12, 2018

  Actual Average Record
Temperature  
Temperatura media 58 ° F -  
Temperatura máxima 67 ° F 63 ° F 75 ° F (2010)
Temperatura mínima 50 ° F 46 ° F 45 ° F (2013)
Degree Days  
Grados día de calefacción 6    
Growing Degree Days 8 (Base 50)    
Moisture  
Punto de rocío 48 ° F    
Average Humidity 68    
Maximum Humidity 88    
Minimum Humidity 42    
Precipitación  
Precipitación 0.00 pul 0.06 pul - ()
Presión al nivel del mar  
Presión al nivel del mar 30.35 pul    
Viento  
Velocidad del viento 6 mph ()    
Velocidad máxima del viento 17 mph    
Max Gust Speed -    
Visibilidad 6.9 Millas    
Eventos      
Averages and records for this station are not official NWS values.
T = Trace of Precipitation, MM = Missing Value Source: Averaged Metar Reports

Daily Weather History Graph

Daily Weather History Graph

Search for Another Location

Airport or City:

Astronomía

Jul. 12, 2018 Salida Puesta
Hora real 5:50 AM -05 6:13 PM -05
Crepúsculo civil 5:28 AM -05 6:35 PM -05
Crepúsculo náutico 5:02 AM -05 7:01 PM -05
Crepúsculo astronómico 4:35 AM -05 7:28 PM -05
Luna 5:12 AM -05 (7/12) 5:57 PM -05 (7/12)
Horas de luz 13h 07m
Horas de luz
12h 22m
Creciente menguante, 0% of the Moon is Illuminated
Jul 12
Creciente menguante
Jul 12
Nueva
Jul 19
Cuarto creciente
Jul 27
Luna llena
Ago 4
Cuarto menguante

Hourly Weather History & Observations

Hora (-05) Temp. Punto de rocío Humedad Presión Visibilidad Wind Dir Velocidad del viento Velocidad de ráfagas Precip Eventos Condiciones
12:00 AM 53.6 ° F 48.2 ° F 82% 30.38 pul 6.2 mi Variable 2.3 mph - N/A   Nubes dispersas
1:00 AM 55 ° F 49 ° F 73%  pul 9 mi NNE 2.2 mph - -   Muy nublado
1:00 AM 55.4 ° F 48.2 ° F 77% 30.37 pul 6.2 mi Variable 2.3 mph - N/A   Muy nublado
2:00 AM 53.6 ° F 50.0 ° F 88% 30.35 pul 6.2 mi Variable 2.3 mph - N/A   Nubes dispersas
3:00 AM 53.6 ° F 50.0 ° F 88% 30.33 pul 6.2 mi Variable 2.3 mph - N/A   Nubes dispersas
4:00 AM 53 ° F 50 ° F 86%  pul 9 mi NNE 4.5 mph - -   Bruma
4:00 AM 53.6 ° F 50.0 ° F 88% 30.33 pul 6.2 mi NNE 4.6 mph - N/A   Muy nublado
5:00 AM 51.8 ° F 48.2 ° F 88% 30.34 pul 6.2 mi Variable 2.3 mph - N/A   Nubes dispersas
5:30 AM 51.8 ° F 48.2 ° F 88% 30.35 pul 6.2 mi NNO 3.5 mph - N/A   Nubes dispersas
6:00 AM 51.8 ° F 48.2 ° F 88% 30.35 pul 6.2 mi NE 4.6 mph - N/A   Nubes dispersas
7:00 AM 54 ° F 49 ° F 79%  pul 9 mi NE 6.7 mph - -   Nubes dispersas
7:00 AM 53.6 ° F 50.0 ° F 88% 30.36 pul 6.2 mi NE 6.9 mph - N/A   Nubes dispersas
7:33 AM 57.2 ° F 50.0 ° F 77% 30.37 pul 6.2 mi NE 8.1 mph - N/A   Parcialmente nublado
8:00 AM 59.0 ° F 50.0 ° F 72% 30.37 pul 6.2 mi NE 8.1 mph - N/A   Parcialmente nublado
9:00 AM 59.0 ° F 50.0 ° F 72% 30.38 pul 6.2 mi NE 12.7 mph - N/A   Nubes dispersas
9:32 AM 62.6 ° F 48.2 ° F 59% 30.38 pul 6.2 mi Este 10.4 mph - N/A   Nubes dispersas
10:00 AM 63 ° F 47 ° F 45%  pul 11 mi ESE 13.4 mph - -   Parcialmente nublado
10:00 AM 62.6 ° F 46.4 ° F 55% 30.38 pul 6.2 mi ESE 12.7 mph - N/A   Nubes dispersas
11:00 AM 66.2 ° F 48.2 ° F 52% 30.37 pul 6.2 mi ESE 10.4 mph - N/A   Nubes dispersas
12:00 PM 64.4 ° F 48.2 ° F 56% 30.36 pul 6.2 mi ESE 10.4 mph - N/A   Nubes dispersas
1:00 PM 65 ° F 47 ° F 42%  pul 11 mi Este 11.2 mph - -   Parcialmente nublado
1:00 PM 66.2 ° F 48.2 ° F 52% 30.34 pul 6.2 mi Este 10.4 mph - N/A   Nubes dispersas
2:00 PM 66.2 ° F 46.4 ° F 49% 30.32 pul 6.2 mi ESE 11.5 mph - N/A   Nubes dispersas
3:00 PM 66.2 ° F 46.4 ° F 49% 30.30 pul 6.2 mi ESE 12.7 mph - N/A   Nubes dispersas
4:00 PM 63 ° F 47 ° F 46%  pul 9 mi SSE 11.2 mph - -   Muy nublado
4:00 PM 68.0 ° F 44.6 ° F 43% 30.29 pul 6.2 mi SSE 13.8 mph - N/A   Nubes dispersas
5:00 PM 62.6 ° F 46.4 ° F 55% 30.30 pul 6.2 mi SE 17.3 mph - N/A   Nubes dispersas
6:00 PM 60.8 ° F 46.4 ° F 59% 30.32 pul 6.2 mi SSE 12.7 mph - N/A   Nubes dispersas
7:00 PM 59 ° F 46 ° F 53%  pul 7 mi SSE 13.4 mph - -   Nublado
7:00 PM 59.0 ° F 46.4 ° F 63% 30.34 pul 6.2 mi SSE 13.8 mph - N/A   Muy nublado
7:06 PM - - N/A% - - Norte - - N/A   Desconocido
8:00 PM 57.2 ° F 50.0 ° F 77% 30.37 pul 6.2 mi Este 4.6 mph - N/A   Muy nublado
9:00 PM 55.4 ° F 50.0 ° F 82% 30.40 pul 6.2 mi NE 8.1 mph - N/A   Muy nublado
10:00 PM 56 ° F 48 ° F 67%  pul 9 mi Este 6.7 mph - -   Bruma
10:00 PM 55.4 ° F 48.2 ° F 77% 30.41 pul 6.2 mi Este 6.9 mph - N/A   Nubes dispersas
11:00 PM 55.4 ° F 46.4 ° F 72% 30.41 pul 6.2 mi ENE 6.9 mph - N/A   Nubes dispersas